Location: El Bakhil
(32.7726°N, 5.5387°W)
Time: 07:02:29
(UTC+00:00)

DIWATA 2B (PO-101) - Visible Passes

Search period start: 29 July 2021 00:00
Search period end: 08 August 2021 00:00
Orbit: 586 x 598 km, 97.9° (Epoch: 28 July)

Date Brightness Start Highest point End Pass type
(mag) Time Alt. Az. Time Alt. Az. Time Alt. Az.
29 Jul ? 01:10:50 13° NNE 01:10:50 13° NNE 01:11:28 10° NNE visible
30 Jul ? 01:19:45 14° NNE 01:19:45 14° NNE 01:20:28 10° NNE visible
31 Jul ? 01:28:39 14° NNE 01:28:39 14° NNE 01:29:24 10° N visible
01 Aug ? 01:37:34 14° N 01:37:34 14° N 01:38:16 10° N visible
02 Aug ? 01:46:29 14° N 01:46:29 14° N 01:47:06 10° N visible
03 Aug ? 01:55:24 13° N 01:55:24 13° N 01:55:53 10° N visible
04 Aug ? 02:04:19 12° NNW 02:04:19 12° NNW 02:04:38 10° NNW visible
05 Aug ? 02:13:14 11° NNW 02:13:14 11° NNW 02:13:19 10° NNW visible
